Location: Arbon
(43.0005°N, 0.7472°E)
Time: 10:49:58
(UTC+00:00)

SR - Pass Details

Date: 05 December 2020
Orbit: 575 x 880 km, 66.7° (Epoch: 21 January)

Event Time Altitude Azimuth Distance (km) Brightness Sun altitude
Rises 03:25:59 0° 308° (NW) 3,292 - -40.7°
Reaches altitude 10° 03:29:46 10° 282° (WNW) 2,419 - -40.0°
Maximum altitude 03:32:10 13° 256° (WSW) 2,247 - -39.6°
Drops below altitude 10° 03:34:37 10° 230° (SW) 2,476 - -39.1°
Sets 03:38:36 0° 204° (SSW) 3,442 - -38.4°
